GEFSGL_prec_meanprecacc_222.txt.gz
Total_Precipitation_Accumulation
1.59 1.79 1.78 1.63 1.62 1.74 1.68 1.66 1.78 1.81 1.79 1.85 1.86 1.83 1.81 1.94 2.15 2.34 2.32 2.47 2.59 2.64 2.62 2.53 2.42 2.45 2.58 2.51 2.63 2.79 3.01 3.22 3.00 2.69 2.56 2.50 2.48 2.27 2.08 1.77 1.56 1.45 1.31
1.85 2.10 2.09 1.80 1.63 1.57 1.46 1.47 1.66 1.84 1.87 1.84 1.82 1.79 1.75 1.84 2.10 2.28 2.39 2.65 2.78 2.68 2.60 2.54 2.43 2.52 2.61 2.57 2.63 2.62 2.68 2.96 2.90 2.72 2.67 2.70 2.57 2.34 2.21 1.99 1.65 1.50 1.47
1.66 1.92 1.86 1.62 1.47 1.43 1.44 1.50 1.65 1.78 1.79 1.76 1.78 1.83 1.94 2.05 2.24 2.38 2.49 2.68 2.65 2.55 2.56 2.47 2.36 2.41 2.37 2.43 2.46 2.44 2.41 2.51 2.67 2.60 2.52 2.60 2.52 2.32 2.24 2.08 1.95 2.02 1.83
1.21 1.48 1.50 1.37 1.32 1.35 1.41 1.43 1.43 1.47 1.54 1.60 1.80 2.03 2.20 2.33 2.41 2.45 2.46 2.44 2.44 2.36 2.26 2.17 2.17 2.26 2.32 2.31 2.24 2.22 2.28 2.41 2.48 2.49 2.48 2.57 2.59 2.55 2.41 2.27 2.28 2.25 2.08
1.10 1.32 1.29 1.27 1.28 1.25 1.25 1.33 1.40 1.46 1.51 1.72 1.90 2.01 2.06 2.12 2.20 2.31 2.31 2.25 2.21 2.12 2.01 1.83 1.85 2.14 2.26 2.23 2.06 2.13 2.22 2.32 2.37 2.46 2.51 2.61 2.67 2.79 2.54 2.27 2.23 2.31 2.19
1.00 1.22 1.22 1.20 1.18 1.13 1.18 1.27 1.44 1.54 1.69 1.87 1.90 1.88 1.85 1.61 1.71 1.83 1.87 1.89 1.89 1.85 1.75 1.69 1.71 1.80 1.80 1.84 1.83 1.83 1.90 1.98 2.17 2.41 2.52 2.53 2.50 2.59 2.64 2.51 2.41 2.36 2.33
0.99 1.17 1.26 1.23 1.25 1.23 1.21 1.37 1.57 1.72 1.87 1.98 1.96 1.90 1.79 1.72 1.62 1.51 1.49 1.54 1.67 1.70 1.72 1.76 1.55 1.42 1.53 1.56 1.67 1.64 1.59 1.66 1.77 2.02 2.22 2.24 2.31 2.32 2.55 2.56 2.61 2.67 2.65
1.04 1.25 1.34 1.29 1.34 1.43 1.43 1.52 1.74 1.95 2.08 2.10 2.06 1.98 1.92 1.86 1.76 1.54 1.50 1.46 1.59 1.63 1.62 1.64 1.61 1.53 1.51 1.60 1.67 1.62 1.48 1.43 1.40 1.37 1.59 1.87 2.07 2.28 2.33 2.39 2.50 2.57 2.57
1.09 1.27 1.38 1.43 1.52 1.54 1.58 1.76 1.97 2.16 2.20 2.16 2.20 2.11 2.05 2.08 1.92 1.58 1.43 1.40 1.57 1.60 1.59 1.56 1.53 1.49 1.54 1.42 1.39 1.42 1.40 1.35 1.20 1.19 1.27 1.48 1.67 1.72 1.90 2.14 2.35 2.33 2.29
1.42 1.49 1.67 1.84 2.00 2.08 2.13 2.20 2.25 2.32 2.24 2.20 2.18 2.19 2.13 2.12 2.02 1.53 1.30 1.31 1.50 1.55 1.61 1.59 1.49 1.36 1.33 1.22 1.21 1.34 1.32 1.29 1.29 1.21 1.12 1.15 1.22 1.35 1.42 1.49 1.78 2.00 1.94
1.71 1.79 1.98 2.27 2.44 2.44 2.45 2.40 2.32 2.33 2.34 2.32 2.23 2.21 2.17 2.09 2.00 1.58 1.39 1.41 1.56 1.64 1.64 1.60 1.54 1.40 1.20 1.15 1.12 1.17 1.22 1.19 1.24 1.27 1.22 1.17 1.24 1.35 1.31 1.28 1.42 1.62 1.69
1.95 2.10 2.29 2.52 2.46 2.38 2.56 2.50 2.47 2.54 2.52 2.40 2.30 2.21 2.22 2.17 1.99 1.67 1.43 1.47 1.62 1.74 1.81 1.76 1.66 1.44 1.20 1.11 1.04 1.04 1.00 0.93 0.97 1.10 1.13 1.08 1.10 1.21 1.29 1.27 1.31 1.34 1.39
2.15 2.23 2.29 2.39 2.57 2.73 2.80 2.69 2.62 2.60 2.54 2.35 2.24 2.11 2.04 2.09 2.11 1.70 1.42 1.47 1.56 1.60 1.77 1.80 1.54 1.31 1.15 1.00 0.97 0.97 0.87 0.81 0.92 0.99 0.97 0.95 0.93 1.03 1.22 1.36 1.39 1.39 1.34
2.02 2.01 2.08 2.22 2.37 2.46 2.70 2.76 2.67 2.55 2.48 2.42 2.33 2.17 2.06 2.07 2.07 1.73 1.42 1.41 1.48 1.47 1.54 1.61 1.47 1.30 1.15 1.02 0.97 0.92 0.87 0.89 0.97 0.98 0.99 1.02 1.02 1.08 1.16 1.23 1.33 1.38 1.36
1.96 1.91 1.90 1.92 2.04 2.13 2.23 2.35 2.33 2.32 2.14 2.04 1.96 1.89 1.86 1.89 1.85 1.60 1.40 1.39 1.50 1.55 1.52 1.54 1.53 1.39 1.26 1.16 1.13 1.15 1.16 1.11 1.03 1.02 1.06 1.08 1.06 1.06 1.11 1.17 1.23 1.27 1.21
1.82 1.75 1.76 1.78 1.85 1.90 1.90 1.85 1.69 1.62 1.48 1.34 1.29 1.23 1.25 1.30 1.40 1.25 1.12 1.21 1.36 1.42 1.33 1.35 1.46 1.45 1.38 1.30 1.23 1.23 1.22 1.15 1.08 1.08 1.07 1.06 1.03 1.00 1.03 1.07 1.10 1.12 1.09
1.83 1.69 1.59 1.54 1.59 1.62 1.67 1.78 1.83 1.61 1.40 1.22 1.08 0.95 0.93 1.02 1.10 1.11 1.06 1.08 1.16 1.19 1.14 1.20 1.30 1.35 1.31 1.27 1.21 1.18 1.13 1.14 1.14 1.09 1.05 1.06 1.04 0.99 0.98 1.02 1.04 1.10 1.08
1.76 1.68 1.56 1.52 1.55 1.58 1.62 1.70 1.82 1.80 1.54 1.21 1.06 0.95 0.82 0.79 0.81 0.83 0.84 0.88 0.97 1.00 1.01 1.08 1.13 1.17 1.18 1.19 1.17 1.16 1.12 1.13 1.11 1.09 1.05 1.05 1.05 1.01 1.01 1.03 1.00 1.02 1.07
1.59 1.53 1.46 1.49 1.51 1.50 1.56 1.60 1.61 1.65 1.55 1.36 1.15 0.94 0.77 0.66 0.66 0.69 0.68 0.74 0.90 0.94 0.93 0.96 0.96 0.98 1.02 1.06 1.06 1.09 1.09 1.05 1.05 1.09 1.05 1.02 1.05 1.06 1.07 1.07 1.07 1.08 1.08
1.49 1.36 1.25 1.28 1.32 1.31 1.36 1.40 1.40 1.44 1.41 1.31 1.17 0.90 0.68 0.60 0.67 0.74 0.73 0.82 0.92 0.91 0.86 0.90 0.85 0.84 0.89 0.96 1.01 1.06 1.06 1.07 1.11 1.08 1.06 1.05 1.03 1.04 1.02 1.03 1.07 1.11 1.13
1.44 1.20 0.98 0.90 0.98 1.07 1.17 1.24 1.25 1.24 1.25 1.20 1.03 0.77 0.56 0.50 0.62 0.76 0.85 0.88 0.88 0.88 0.82 0.78 0.74 0.76 0.81 0.87 0.92 0.94 0.99 1.06 1.06 1.04 1.08 1.05 1.01 1.02 1.00 1.01 1.01 1.03 1.08
1.32 1.19 1.01 0.90 0.92 0.97 1.06 1.16 1.17 1.11 1.08 1.04 0.93 0.73 0.58 0.49 0.60 0.71 0.78 0.78 0.76 0.78 0.75 0.72 0.69 0.73 0.76 0.80 0.86 0.91 0.95 0.97 0.98 1.01 1.03 1.03 1.03 1.02 1.03 1.08 1.07 1.06 1.07
1.24 1.17 1.05 0.96 0.96 0.96 1.01 1.09 1.07 1.01 0.96 0.91 0.84 0.74 0.65 0.65 0.70 0.76 0.77 0.76 0.75 0.72 0.70 0.69 0.66 0.65 0.71 0.75 0.77 0.83 0.88 0.89 0.90 0.93 0.99 1.03 1.04 1.05 1.08 1.11 1.08 1.03 1.04
1.10 1.06 0.94 0.88 0.89 0.93 0.91 0.93 0.91 0.87 0.82 0.78 0.74 0.72 0.70 0.71 0.74 0.73 0.74 0.73 0.71 0.64 0.60 0.62 0.64 0.66 0.69 0.73 0.71 0.71 0.74 0.76 0.77 0.81 0.87 0.93 0.97 1.04 1.11 1.13 1.09 1.06 1.12
1.01 1.03 0.95 0.87 0.85 0.86 0.85 0.84 0.80 0.79 0.75 0.69 0.66 0.64 0.65 0.67 0.68 0.72 0.71 0.66 0.61 0.59 0.56 0.58 0.63 0.64 0.60 0.61 0.61 0.61 0.66 0.65 0.63 0.70 0.81 0.92 0.94 1.01 1.13 1.17 1.16 1.15 1.22
0.90 0.92 0.88 0.81 0.77 0.77 0.78 0.82 0.82 0.76 0.70 0.65 0.64 0.65 0.60 0.56 0.56 0.58 0.57 0.55 0.54 0.54 0.55 0.56 0.59 0.59 0.59 0.56 0.56 0.59 0.58 0.54 0.56 0.64 0.68 0.77 0.89 0.96 1.03 1.09 1.07 1.13 1.22

GEFSGL_prec_meanprecacc_228.txt.gz
Total_Precipitation_Accumulation
1.61 1.80 1.79 1.64 1.62 1.75 1.69 1.67 1.80 1.83 1.81 1.86 1.87 1.84 1.83 1.97 2.19 2.39 2.37 2.52 2.64 2.70 2.69 2.59 2.47 2.51 2.64 2.56 2.70 2.86 3.09 3.31 3.07 2.75 2.61 2.55 2.52 2.31 2.11 1.80 1.58 1.47 1.35
1.87 2.10 2.10 1.81 1.64 1.58 1.47 1.49 1.67 1.86 1.88 1.84 1.83 1.80 1.76 1.86 2.12 2.31 2.42 2.67 2.81 2.73 2.65 2.59 2.47 2.57 2.66 2.62 2.69 2.70 2.76 3.04 2.96 2.77 2.72 2.75 2.62 2.38 2.26 2.04 1.68 1.52 1.52
1.67 1.93 1.87 1.64 1.48 1.45 1.46 1.52 1.66 1.79 1.80 1.76 1.78 1.84 1.96 2.07 2.26 2.40 2.51 2.69 2.66 2.57 2.59 2.51 2.39 2.45 2.41 2.47 2.51 2.49 2.48 2.58 2.74 2.66 2.58 2.65 2.57 2.36 2.27 2.11 1.98 2.07 1.88
1.23 1.50 1.51 1.38 1.33 1.36 1.42 1.44 1.44 1.48 1.55 1.61 1.82 2.05 2.21 2.34 2.42 2.46 2.47 2.45 2.45 2.37 2.28 2.20 2.20 2.29 2.35 2.35 2.28 2.27 2.33 2.46 2.54 2.55 2.53 2.62 2.63 2.59 2.45 2.32 2.32 2.29 2.14
1.14 1.34 1.31 1.27 1.28 1.25 1.26 1.34 1.41 1.47 1.52 1.73 1.91 2.02 2.07 2.13 2.21 2.32 2.32 2.26 2.23 2.14 2.03 1.85 1.88 2.16 2.29 2.26 2.09 2.16 2.25 2.35 2.42 2.52 2.57 2.66 2.72 2.84 2.59 2.32 2.26 2.35 2.23
1.03 1.23 1.23 1.21 1.19 1.14 1.19 1.29 1.45 1.55 1.71 1.88 1.91 1.89 1.85 1.61 1.71 1.83 1.87 1.90 1.90 1.87 1.77 1.71 1.72 1.82 1.83 1.86 1.85 1.85 1.91 2.00 2.20 2.45 2.57 2.56 2.54 2.63 2.69 2.55 2.45 2.40 2.37
1.01 1.18 1.26 1.23 1.26 1.24 1.22 1.38 1.58 1.74 1.89 2.00 1.97 1.91 1.80 1.73 1.63 1.51 1.49 1.54 1.67 1.70 1.72 1.77 1.56 1.42 1.54 1.57 1.68 1.66 1.61 1.68 1.80 2.04 2.25 2.27 2.35 2.35 2.58 2.60 2.64 2.70 2.68
1.05 1.26 1.35 1.30 1.35 1.44 1.44 1.53 1.75 1.96 2.10 2.12 2.07 1.99 1.92 1.86 1.76 1.54 1.50 1.46 1.59 1.63 1.63 1.65 1.62 1.54 1.52 1.61 1.68 1.64 1.51 1.45 1.42 1.39 1.62 1.90 2.10 2.31 2.35 2.41 2.53 2.61 2.61
1.10 1.27 1.38 1.44 1.52 1.55 1.59 1.77 1.99 2.17 2.21 2.17 2.21 2.12 2.05 2.08 1.92 1.58 1.43 1.40 1.57 1.61 1.60 1.57 1.54 1.51 1.55 1.42 1.40 1.44 1.43 1.39 1.24 1.23 1.30 1.51 1.70 1.74 1.92 2.16 2.37 2.36 2.32
1.43 1.50 1.68 1.85 2.01 2.09 2.14 2.21 2.26 2.33 2.25 2.21 2.19 2.20 2.13 2.13 2.02 1.53 1.30 1.31 1.50 1.55 1.62 1.60 1.49 1.37 1.33 1.22 1.22 1.37 1.35 1.33 1.33 1.26 1.16 1.18 1.24 1.37 1.43 1.50 1.80 2.01 1.95
1.72 1.79 1.99 2.28 2.45 2.45 2.47 2.42 2.34 2.35 2.36 2.33 2.24 2.21 2.17 2.09 2.00 1.58 1.39 1.41 1.56 1.65 1.64 1.61 1.55 1.40 1.21 1.15 1.12 1.18 1.24 1.21 1.26 1.30 1.25 1.19 1.25 1.36 1.32 1.28 1.43 1.63 1.70
1.97 2.12 2.31 2.54 2.49 2.43 2.60 2.53 2.49 2.56 2.54 2.41 2.30 2.21 2.23 2.18 1.99 1.68 1.43 1.47 1.62 1.74 1.81 1.77 1.67 1.45 1.20 1.11 1.04 1.04 1.01 0.94 0.98 1.11 1.14 1.09 1.11 1.22 1.30 1.28 1.31 1.35 1.40
2.18 2.30 2.36 2.44 2.61 2.77 2.83 2.72 2.63 2.62 2.55 2.36 2.25 2.12 2.04 2.10 2.12 1.71 1.42 1.47 1.56 1.61 1.78 1.82 1.55 1.32 1.15 1.00 0.98 0.97 0.87 0.81 0.92 0.99 0.98 0.96 0.94 1.04 1.24 1.37 1.41 1.41 1.35
2.05 2.05 2.13 2.26 2.40 2.49 2.73 2.79 2.70 2.57 2.50 2.44 2.34 2.18 2.06 2.08 2.07 1.74 1.43 1.41 1.48 1.47 1.55 1.62 1.48 1.30 1.15 1.03 0.97 0.93 0.88 0.90 0.98 0.99 1.00 1.03 1.04 1.09 1.18 1.26 1.36 1.41 1.38
1.98 1.93 1.92 1.95 2.07 2.17 2.27 2.38 2.35 2.34 2.16 2.06 1.97 1.90 1.88 1.90 1.87 1.61 1.41 1.40 1.51 1.56 1.53 1.55 1.54 1.40 1.27 1.17 1.14 1.17 1.18 1.13 1.05 1.04 1.07 1.10 1.08 1.08 1.13 1.19 1.26 1.29 1.24
1.84 1.77 1.79 1.81 1.89 1.94 1.93 1.88 1.72 1.65 1.50 1.35 1.29 1.24 1.25 1.31 1.41 1.26 1.13 1.22 1.37 1.42 1.34 1.36 1.47 1.46 1.39 1.31 1.25 1.25 1.24 1.18 1.11 1.11 1.09 1.08 1.06 1.03 1.06 1.10 1.13 1.14 1.12
1.86 1.72 1.61 1.58 1.64 1.66 1.70 1.80 1.85 1.63 1.42 1.23 1.10 0.96 0.94 1.03 1.11 1.12 1.06 1.08 1.17 1.19 1.15 1.21 1.31 1.36 1.32 1.29 1.24 1.21 1.16 1.17 1.17 1.12 1.07 1.08 1.07 1.02 1.01 1.05 1.06 1.12 1.11
1.79 1.71 1.60 1.57 1.59 1.61 1.65 1.72 1.84 1.83 1.56 1.22 1.08 0.97 0.84 0.80 0.81 0.84 0.84 0.88 0.97 1.00 1.02 1.09 1.14 1.19 1.20 1.21 1.20 1.19 1.14 1.15 1.14 1.12 1.08 1.07 1.08 1.04 1.04 1.05 1.02 1.04 1.10
1.61 1.56 1.50 1.53 1.55 1.54 1.60 1.63 1.63 1.66 1.57 1.38 1.17 0.96 0.79 0.67 0.67 0.70 0.68 0.74 0.90 0.95 0.94 0.97 0.98 0.99 1.04 1.08 1.08 1.12 1.11 1.08 1.07 1.11 1.08 1.05 1.08 1.10 1.10 1.09 1.09 1.09 1.10
1.54 1.42 1.31 1.33 1.35 1.35 1.39 1.43 1.42 1.46 1.42 1.32 1.18 0.92 0.70 0.62 0.68 0.75 0.74 0.83 0.92 0.92 0.87 0.91 0.86 0.85 0.91 0.97 1.04 1.09 1.09 1.11 1.14 1.12 1.09 1.08 1.06 1.08 1.05 1.05 1.09 1.13 1.15
1.49 1.27 1.05 0.95 1.02 1.11 1.21 1.27 1.27 1.26 1.27 1.23 1.05 0.79 0.58 0.52 0.63 0.77 0.86 0.89 0.90 0.89 0.83 0.79 0.75 0.77 0.83 0.90 0.95 0.98 1.04 1.12 1.11 1.08 1.11 1.08 1.03 1.04 1.03 1.04 1.03 1.05 1.10
1.38 1.24 1.06 0.94 0.97 1.02 1.09 1.18 1.19 1.13 1.10 1.07 0.95 0.75 0.59 0.50 0.61 0.72 0.79 0.80 0.79 0.80 0.77 0.74 0.71 0.75 0.78 0.83 0.90 0.95 0.99 1.02 1.03 1.04 1.06 1.05 1.05 1.04 1.05 1.10 1.10 1.09 1.09
1.29 1.22 1.10 1.01 1.03 1.02 1.04 1.11 1.09 1.02 0.97 0.92 0.85 0.76 0.66 0.66 0.71 0.77 0.80 0.79 0.78 0.74 0.72 0.70 0.67 0.67 0.73 0.78 0.80 0.86 0.92 0.92 0.94 0.97 1.02 1.06 1.06 1.07 1.11 1.14 1.11 1.08 1.08
1.15 1.11 0.98 0.93 0.95 0.98 0.95 0.96 0.93 0.88 0.84 0.79 0.75 0.73 0.71 0.73 0.75 0.75 0.76 0.75 0.73 0.66 0.61 0.63 0.65 0.67 0.71 0.75 0.74 0.74 0.77 0.79 0.80 0.86 0.92 0.97 1.00 1.08 1.16 1.19 1.15 1.11 1.16
1.06 1.08 1.00 0.92 0.90 0.91 0.89 0.87 0.83 0.81 0.77 0.71 0.68 0.66 0.66 0.68 0.70 0.73 0.73 0.68 0.62 0.61 0.57 0.59 0.65 0.66 0.62 0.63 0.63 0.63 0.69 0.69 0.67 0.74 0.85 0.97 1.01 1.08 1.20 1.24 1.23 1.22 1.28
0.94 0.97 0.93 0.86 0.82 0.81 0.81 0.86 0.85 0.78 0.72 0.67 0.66 0.67 0.62 0.57 0.57 0.59 0.59 0.57 0.56 0.57 0.57 0.59 0.61 0.62 0.61 0.58 0.59 0.63 0.62 0.60 0.62 0.71 0.74 0.82 0.94 1.03 1.12 1.17 1.14 1.20 1.28

GEFSGL_prec_meanprecacc_234.txt.gz
Total_Precipitation_Accumulation
1.62 1.81 1.80 1.64 1.63 1.75 1.70 1.67 1.80 1.84 1.82 1.87 1.88 1.85 1.84 1.98 2.20 2.40 2.38 2.52 2.64 2.70 2.70 2.61 2.49 2.53 2.67 2.61 2.74 2.89 3.11 3.32 3.08 2.76 2.62 2.56 2.54 2.34 2.17 1.88 1.64 1.51 1.39
1.87 2.11 2.11 1.81 1.64 1.59 1.49 1.50 1.67 1.86 1.89 1.85 1.84 1.81 1.77 1.87 2.13 2.32 2.43 2.68 2.81 2.73 2.65 2.59 2.48 2.58 2.68 2.65 2.71 2.72 2.78 3.06 2.98 2.78 2.73 2.77 2.64 2.40 2.28 2.08 1.73 1.54 1.54
1.67 1.93 1.88 1.64 1.49 1.47 1.48 1.53 1.66 1.80 1.81 1.77 1.79 1.85 1.97 2.09 2.28 2.41 2.51 2.69 2.66 2.57 2.59 2.51 2.40 2.46 2.42 2.48 2.52 2.50 2.49 2.60 2.77 2.68 2.59 2.67 2.58 2.37 2.28 2.12 2.00 2.08 1.90
1.25 1.51 1.52 1.39 1.34 1.37 1.43 1.45 1.45 1.49 1.55 1.62 1.82 2.06 2.22 2.35 2.43 2.48 2.47 2.45 2.45 2.37 2.28 2.20 2.20 2.30 2.36 2.37 2.30 2.28 2.34 2.48 2.57 2.58 2.56 2.64 2.65 2.60 2.46 2.34 2.35 2.31 2.15
1.16 1.36 1.33 1.29 1.29 1.26 1.27 1.36 1.42 1.48 1.53 1.75 1.93 2.03 2.08 2.14 2.22 2.32 2.32 2.27 2.23 2.14 2.03 1.85 1.88 2.17 2.30 2.28 2.11 2.18 2.27 2.37 2.45 2.56 2.60 2.67 2.73 2.86 2.62 2.36 2.30 2.37 2.25
1.05 1.26 1.25 1.22 1.21 1.15 1.20 1.30 1.45 1.56 1.72 1.90 1.92 1.90 1.87 1.62 1.72 1.84 1.87 1.90 1.90 1.87 1.77 1.71 1.72 1.82 1.84 1.88 1.86 1.86 1.92 2.01 2.21 2.47 2.57 2.57 2.55 2.64 2.70 2.58 2.48 2.43 2.40
1.03 1.20 1.28 1.25 1.27 1.25 1.22 1.39 1.58 1.75 1.91 2.02 1.98 1.92 1.82 1.74 1.63 1.52 1.50 1.55 1.68 1.71 1.72 1.77 1.56 1.43 1.55 1.58 1.69 1.66 1.61 1.69 1.81 2.05 2.26 2.28 2.35 2.36 2.59 2.61 2.66 2.72 2.69
1.08 1.29 1.37 1.31 1.37 1.45 1.45 1.54 1.76 1.98 2.12 2.14 2.10 2.01 1.94 1.87 1.77 1.55 1.51 1.47 1.60 1.64 1.63 1.65 1.62 1.54 1.52 1.61 1.69 1.64 1.51 1.46 1.43 1.41 1.63 1.91 2.11 2.32 2.37 2.44 2.57 2.65 2.66
1.15 1.31 1.41 1.45 1.53 1.56 1.60 1.78 2.00 2.19 2.24 2.22 2.26 2.15 2.07 2.10 1.93 1.59 1.44 1.41 1.57 1.61 1.60 1.57 1.54 1.51 1.55 1.42 1.40 1.44 1.43 1.40 1.25 1.24 1.32 1.52 1.71 1.76 1.95 2.21 2.43 2.42 2.37
1.48 1.54 1.71 1.87 2.03 2.10 2.15 2.23 2.28 2.37 2.33 2.33 2.27 2.24 2.17 2.15 2.04 1.54 1.31 1.31 1.50 1.55 1.62 1.60 1.49 1.37 1.33 1.22 1.22 1.37 1.35 1.33 1.34 1.27 1.18 1.20 1.28 1.42 1.49 1.56 1.86 2.07 1.99
1.78 1.85 2.03 2.33 2.49 2.48 2.49 2.44 2.37 2.38 2.40 2.37 2.27 2.23 2.18 2.10 2.01 1.59 1.40 1.41 1.56 1.65 1.64 1.61 1.55 1.41 1.21 1.16 1.12 1.19 1.24 1.21 1.27 1.30 1.27 1.22 1.30 1.41 1.37 1.33 1.48 1.67 1.73
2.08 2.22 2.39 2.61 2.55 2.47 2.64 2.57 2.54 2.60 2.57 2.44 2.33 2.23 2.24 2.19 2.00 1.68 1.44 1.48 1.62 1.75 1.81 1.77 1.68 1.45 1.21 1.11 1.04 1.04 1.01 0.94 0.98 1.12 1.15 1.11 1.14 1.24 1.32 1.30 1.33 1.37 1.42
2.32 2.44 2.50 2.55 2.69 2.83 2.88 2.77 2.69 2.66 2.58 2.39 2.27 2.14 2.06 2.11 2.13 1.72 1.44 1.49 1.57 1.61 1.79 1.82 1.56 1.32 1.15 1.00 0.98 0.97 0.88 0.81 0.93 1.00 0.98 0.96 0.95 1.05 1.25 1.38 1.42 1.42 1.37
2.18 2.17 2.23 2.35 2.46 2.55 2.79 2.85 2.75 2.61 2.53 2.46 2.36 2.19 2.08 2.10 2.10 1.76 1.45 1.43 1.50 1.48 1.56 1.63 1.48 1.30 1.15 1.03 0.97 0.93 0.88 0.90 0.99 1.00 1.01 1.04 1.04 1.10 1.18 1.26 1.37 1.42 1.40
2.13 2.07 2.03 2.05 2.16 2.24 2.33 2.43 2.40 2.37 2.19 2.10 2.00 1.93 1.90 1.93 1.90 1.64 1.44 1.42 1.52 1.58 1.54 1.56 1.55 1.41 1.28 1.17 1.14 1.17 1.18 1.13 1.06 1.04 1.08 1.10 1.09 1.09 1.14 1.20 1.27 1.31 1.25
1.97 1.90 1.91 1.91 1.99 2.03 2.01 1.93 1.77 1.69 1.54 1.39 1.33 1.27 1.29 1.34 1.45 1.29 1.15 1.23 1.38 1.44 1.35 1.37 1.48 1.47 1.40 1.32 1.26 1.26 1.25 1.19 1.12 1.11 1.10 1.09 1.07 1.05 1.08 1.12 1.15 1.17 1.15
1.94 1.79 1.68 1.65 1.72 1.73 1.77 1.87 1.91 1.69 1.48 1.28 1.14 1.00 0.98 1.07 1.15 1.15 1.08 1.09 1.18 1.21 1.16 1.22 1.32 1.37 1.33 1.30 1.24 1.22 1.17 1.18 1.18 1.13 1.09 1.10 1.09 1.04 1.04 1.07 1.09 1.15 1.14
1.88 1.77 1.66 1.63 1.68 1.71 1.74 1.81 1.92 1.90 1.64 1.29 1.13 1.02 0.88 0.84 0.85 0.88 0.87 0.91 0.99 1.02 1.03 1.10 1.15 1.20 1.21 1.22 1.20 1.19 1.15 1.16 1.15 1.13 1.10 1.10 1.10 1.07 1.07 1.09 1.05 1.07 1.13
1.73 1.65 1.59 1.60 1.61 1.63 1.72 1.78 1.79 1.82 1.70 1.46 1.22 0.99 0.83 0.71 0.71 0.75 0.72 0.77 0.93 0.97 0.96 0.99 1.00 1.01 1.05 1.09 1.09 1.13 1.12 1.09 1.09 1.14 1.11 1.09 1.11 1.14 1.15 1.14 1.14 1.15 1.15
1.60 1.48 1.37 1.38 1.41 1.40 1.45 1.53 1.53 1.57 1.53 1.41 1.25 0.98 0.75 0.66 0.71 0.78 0.76 0.86 0.96 0.95 0.90 0.93 0.88 0.87 0.92 0.99 1.05 1.11 1.10 1.12 1.16 1.15 1.13 1.13 1.12 1.13 1.12 1.13 1.16 1.19 1.20
1.54 1.33 1.08 0.98 1.06 1.17 1.28 1.36 1.35 1.34 1.35 1.31 1.13 0.86 0.64 0.56 0.66 0.79 0.88 0.91 0.91 0.90 0.86 0.81 0.77 0.79 0.85 0.91 0.97 1.00 1.06 1.14 1.13 1.11 1.14 1.11 1.06 1.07 1.06 1.08 1.08 1.09 1.14
1.43 1.29 1.10 0.98 1.01 1.07 1.15 1.26 1.27 1.21 1.19 1.14 1.02 0.81 0.64 0.55 0.64 0.75 0.82 0.82 0.80 0.81 0.78 0.74 0.72 0.76 0.80 0.85 0.92 0.97 1.01 1.04 1.05 1.06 1.08 1.07 1.07 1.06 1.07 1.13 1.14 1.13 1.14
1.34 1.27 1.15 1.05 1.07 1.06 1.10 1.18 1.15 1.08 1.03 0.98 0.91 0.80 0.70 0.70 0.74 0.80 0.82 0.81 0.79 0.75 0.73 0.72 0.69 0.68 0.74 0.80 0.82 0.88 0.94 0.94 0.95 0.98 1.04 1.08 1.08 1.10 1.14 1.18 1.15 1.12 1.12
1.18 1.14 1.02 0.96 0.98 1.01 0.98 1.00 0.96 0.92 0.88 0.85 0.80 0.77 0.75 0.76 0.78 0.77 0.79 0.77 0.74 0.67 0.63 0.65 0.67 0.69 0.73 0.77 0.76 0.76 0.79 0.81 0.82 0.87 0.93 1.00 1.04 1.12 1.20 1.23 1.20 1.16 1.21
1.08 1.10 1.02 0.94 0.92 0.93 0.91 0.90 0.87 0.85 0.82 0.77 0.74 0.72 0.71 0.72 0.73 0.76 0.75 0.70 0.64 0.63 0.60 0.61 0.67 0.68 0.64 0.64 0.65 0.65 0.72 0.72 0.70 0.77 0.89 1.02 1.06 1.14 1.26 1.30 1.29 1.28 1.35
0.97 0.99 0.95 0.88 0.84 0.84 0.84 0.89 0.88 0.81 0.76 0.71 0.70 0.70 0.65 0.60 0.59 0.61 0.61 0.60 0.60 0.60 0.60 0.61 0.63 0.64 0.63 0.61 0.62 0.66 0.66 0.64 0.66 0.74 0.77 0.85 0.98 1.08 1.17 1.22 1.19 1.25 1.33

GEFSGL_prec_meanprecacc_240.txt.gz
Total_Precipitation_Accumulation
1.64 1.84 1.84 1.71 1.68 1.77 1.71 1.67 1.80 1.84 1.82 1.87 1.88 1.86 1.85 1.99 2.20 2.41 2.38 2.54 2.66 2.72 2.71 2.62 2.50 2.55 2.70 2.64 2.76 2.91 3.13 3.34 3.10 2.77 2.64 2.58 2.56 2.36 2.19 1.90 1.66 1.52 1.40
1.89 2.15 2.16 1.87 1.67 1.61 1.50 1.51 1.68 1.86 1.89 1.85 1.84 1.81 1.78 1.88 2.15 2.33 2.45 2.69 2.82 2.74 2.66 2.60 2.48 2.59 2.69 2.67 2.73 2.74 2.80 3.07 3.00 2.80 2.75 2.78 2.66 2.43 2.30 2.10 1.75 1.55 1.55
1.71 1.99 1.97 1.72 1.52 1.49 1.50 1.54 1.67 1.80 1.81 1.77 1.79 1.86 1.98 2.10 2.30 2.43 2.53 2.71 2.67 2.57 2.59 2.51 2.40 2.46 2.42 2.49 2.53 2.51 2.50 2.61 2.78 2.70 2.61 2.69 2.60 2.40 2.31 2.14 2.01 2.09 1.91
1.29 1.55 1.57 1.42 1.36 1.38 1.45 1.47 1.46 1.50 1.56 1.63 1.83 2.07 2.23 2.36 2.44 2.49 2.49 2.47 2.46 2.37 2.28 2.20 2.21 2.31 2.37 2.37 2.30 2.29 2.35 2.49 2.59 2.61 2.59 2.67 2.68 2.64 2.49 2.36 2.37 2.32 2.16
1.19 1.39 1.36 1.31 1.31 1.28 1.29 1.37 1.43 1.50 1.55 1.77 1.94 2.05 2.09 2.15 2.23 2.34 2.34 2.28 2.24 2.15 2.04 1.86 1.89 2.18 2.31 2.28 2.12 2.19 2.27 2.38 2.47 2.58 2.62 2.71 2.77 2.91 2.67 2.41 2.32 2.38 2.26
1.08 1.29 1.28 1.25 1.23 1.17 1.22 1.31 1.47 1.58 1.74 1.92 1.93 1.91 1.88 1.64 1.74 1.86 1.89 1.91 1.91 1.88 1.78 1.71 1.73 1.82 1.84 1.89 1.89 1.89 1.94 2.02 2.23 2.49 2.60 2.59 2.57 2.66 2.72 2.59 2.49 2.44 2.41
1.09 1.25 1.31 1.28 1.30 1.28 1.25 1.41 1.61 1.78 1.93 2.04 2.00 1.94 1.83 1.75 1.66 1.54 1.52 1.56 1.69 1.72 1.74 1.79 1.57 1.43 1.55 1.58 1.71 1.70 1.63 1.70 1.81 2.07 2.28 2.30 2.37 2.37 2.60 2.62 2.66 2.73 2.70
1.14 1.34 1.41 1.36 1.40 1.49 1.49 1.58 1.81 2.03 2.17 2.19 2.14 2.04 1.97 1.91 1.81 1.60 1.54 1.50 1.62 1.66 1.65 1.68 1.64 1.55 1.52 1.62 1.69 1.64 1.51 1.46 1.43 1.41 1.64 1.92 2.12 2.33 2.37 2.44 2.57 2.66 2.67
1.21 1.38 1.50 1.53 1.60 1.62 1.66 1.84 2.07 2.25 2.29 2.28 2.31 2.21 2.14 2.17 2.01 1.65 1.49 1.44 1.60 1.64 1.64 1.59 1.55 1.51 1.55 1.43 1.41 1.44 1.43 1.40 1.25 1.24 1.32 1.53 1.72 1.77 1.96 2.22 2.45 2.44 2.40
1.53 1.63 1.82 1.99 2.15 2.21 2.24 2.29 2.34 2.43 2.39 2.40 2.34 2.31 2.21 2.18 2.07 1.58 1.34 1.33 1.52 1.57 1.63 1.60 1.50 1.37 1.34 1.22 1.22 1.37 1.35 1.33 1.34 1.27 1.18 1.20 1.29 1.44 1.52 1.59 1.90 2.10 2.02
1.86 1.94 2.14 2.42 2.59 2.59 2.59 2.52 2.43 2.44 2.47 2.43 2.31 2.26 2.20 2.11 2.02 1.60 1.41 1.42 1.57 1.66 1.65 1.61 1.55 1.41 1.21 1.16 1.13 1.19 1.25 1.21 1.27 1.31 1.27 1.22 1.30 1.42 1.39 1.35 1.51 1.72 1.79
2.15 2.29 2.47 2.68 2.62 2.56 2.73 2.65 2.61 2.67 2.65 2.49 2.36 2.25 2.25 2.19 2.00 1.69 1.46 1.50 1.64 1.75 1.81 1.77 1.68 1.46 1.21 1.12 1.05 1.04 1.02 0.94 0.98 1.12 1.16 1.11 1.14 1.25 1.33 1.32 1.37 1.40 1.45
2.37 2.51 2.58 2.63 2.78 2.92 2.98 2.88 2.78 2.73 2.63 2.42 2.29 2.15 2.07 2.12 2.15 1.75 1.47 1.52 1.59 1.63 1.79 1.83 1.56 1.32 1.16 1.00 0.98 0.97 0.88 0.82 0.93 1.00 0.99 0.97 0.96 1.06 1.26 1.40 1.45 1.46 1.40
2.23 2.23 2.31 2.45 2.58 2.68 2.91 2.96 2.85 2.69 2.59 2.50 2.38 2.21 2.09 2.11 2.12 1.79 1.48 1.45 1.51 1.49 1.57 1.64 1.49 1.31 1.16 1.03 0.98 0.93 0.88 0.91 0.99 1.00 1.01 1.04 1.05 1.11 1.19 1.27 1.38 1.43 1.41
2.21 2.14 2.10 2.13 2.27 2.38 2.48 2.54 2.50 2.47 2.28 2.16 2.05 1.96 1.93 1.96 1.94 1.68 1.48 1.46 1.55 1.60 1.56 1.58 1.56 1.42 1.29 1.18 1.15 1.18 1.19 1.14 1.06 1.05 1.08 1.11 1.10 1.10 1.15 1.21 1.28 1.32 1.26
2.03 1.96 1.96 1.95 2.04 2.09 2.10 2.03 1.85 1.77 1.61 1.45 1.38 1.31 1.32 1.38 1.51 1.36 1.23 1.30 1.44 1.49 1.38 1.39 1.50 1.50 1.42 1.34 1.27 1.27 1.26 1.20 1.13 1.13 1.11 1.10 1.08 1.05 1.08 1.12 1.16 1.17 1.16
1.95 1.81 1.70 1.67 1.74 1.76 1.81 1.92 1.97 1.74 1.53 1.33 1.18 1.04 1.02 1.11 1.20 1.20 1.15 1.15 1.24 1.26 1.19 1.24 1.34 1.39 1.35 1.32 1.26 1.23 1.19 1.20 1.20 1.15 1.10 1.12 1.10 1.05 1.05 1.08 1.10 1.16 1.15
1.89 1.79 1.68 1.65 1.70 1.73 1.77 1.84 1.97 1.97 1.70 1.34 1.18 1.06 0.92 0.88 0.89 0.93 0.93 0.97 1.03 1.05 1.05 1.12 1.17 1.22 1.23 1.23 1.22 1.21 1.17 1.18 1.17 1.15 1.12 1.12 1.12 1.08 1.09 1.10 1.07 1.09 1.15
1.74 1.68 1.62 1.64 1.66 1.68 1.77 1.81 1.81 1.85 1.74 1.51 1.26 1.03 0.87 0.75 0.75 0.80 0.79 0.83 0.97 1.00 0.98 1.00 1.01 1.03 1.07 1.12 1.13 1.17 1.16 1.13 1.13 1.17 1.13 1.11 1.13 1.15 1.16 1.16 1.16 1.17 1.17
1.63 1.52 1.42 1.45 1.46 1.43 1.47 1.55 1.56 1.60 1.56 1.44 1.27 1.01 0.79 0.69 0.75 0.82 0.80 0.89 0.99 0.98 0.93 0.96 0.92 0.91 0.96 1.03 1.09 1.15 1.14 1.15 1.19 1.16 1.14 1.13 1.12 1.14 1.13 1.15 1.18 1.21 1.23
1.58 1.37 1.13 1.04 1.13 1.23 1.32 1.39 1.39 1.37 1.38 1.34 1.15 0.88 0.67 0.60 0.71 0.84 0.92 0.95 0.94 0.94 0.90 0.86 0.81 0.83 0.88 0.93 0.98 1.02 1.09 1.16 1.15 1.13 1.15 1.12 1.07 1.08 1.07 1.09 1.09 1.12 1.18
1.46 1.33 1.14 1.02 1.05 1.11 1.19 1.30 1.31 1.25 1.21 1.17 1.04 0.84 0.68 0.59 0.68 0.78 0.85 0.84 0.83 0.85 0.82 0.78 0.75 0.78 0.82 0.87 0.94 0.99 1.02 1.05 1.06 1.08 1.09 1.09 1.09 1.08 1.09 1.15 1.17 1.17 1.19
1.37 1.29 1.17 1.08 1.10 1.10 1.13 1.21 1.17 1.11 1.08 1.03 0.96 0.85 0.73 0.72 0.76 0.82 0.85 0.84 0.84 0.80 0.76 0.75 0.71 0.71 0.77 0.82 0.85 0.91 0.97 0.97 0.99 1.01 1.07 1.10 1.10 1.12 1.17 1.22 1.20 1.16 1.16
1.21 1.17 1.04 0.99 1.01 1.04 1.02 1.04 1.00 0.96 0.92 0.88 0.83 0.79 0.76 0.78 0.79 0.79 0.81 0.81 0.79 0.72 0.68 0.68 0.70 0.73 0.76 0.80 0.79 0.78 0.81 0.84 0.85 0.90 0.96 1.02 1.06 1.15 1.24 1.27 1.23 1.19 1.24
1.12 1.15 1.06 0.99 0.98 0.99 0.97 0.96 0.91 0.88 0.84 0.78 0.75 0.74 0.73 0.74 0.75 0.78 0.78 0.74 0.68 0.67 0.64 0.65 0.71 0.71 0.67 0.68 0.68 0.67 0.75 0.75 0.73 0.80 0.91 1.04 1.08 1.17 1.29 1.33 1.31 1.30 1.37
1.00 1.03 0.99 0.92 0.88 0.88 0.88 0.92 0.90 0.83 0.78 0.73 0.71 0.71 0.67 0.62 0.62 0.63 0.63 0.62 0.62 0.63 0.63 0.65 0.67 0.68 0.66 0.64 0.65 0.69 0.69 0.66 0.69 0.78 0.80 0.88 1.00 1.11 1.19 1.24 1.20 1.27 1.35

GEFSGL_prec_meanprecacc_246.txt.gz
Total_Precipitation_Accumulation
1.64 1.86 1.88 1.76 1.76 1.84 1.75 1.71 1.83 1.86 1.85 1.89 1.90 1.87 1.87 2.02 2.23 2.42 2.40 2.56 2.69 2.74 2.73 2.64 2.52 2.56 2.72 2.66 2.79 2.94 3.15 3.36 3.12 2.79 2.65 2.59 2.58 2.38 2.21 1.91 1.67 1.54 1.42
1.90 2.17 2.21 1.96 1.74 1.65 1.53 1.53 1.70 1.89 1.90 1.87 1.85 1.83 1.80 1.90 2.16 2.34 2.46 2.71 2.83 2.75 2.66 2.61 2.49 2.60 2.71 2.68 2.75 2.76 2.82 3.10 3.02 2.82 2.76 2.80 2.68 2.44 2.32 2.12 1.76 1.57 1.57
1.72 2.01 2.01 1.76 1.55 1.51 1.51 1.56 1.69 1.83 1.83 1.79 1.81 1.87 2.00 2.12 2.32 2.44 2.55 2.72 2.68 2.58 2.60 2.52 2.41 2.48 2.44 2.50 2.54 2.53 2.53 2.63 2.80 2.72 2.63 2.70 2.62 2.41 2.32 2.16 2.03 2.11 1.92
1.31 1.59 1.59 1.44 1.39 1.40 1.46 1.49 1.49 1.53 1.59 1.64 1.85 2.08 2.24 2.37 2.46 2.51 2.51 2.49 2.48 2.40 2.30 2.22 2.22 2.32 2.39 2.38 2.31 2.31 2.37 2.52 2.61 2.63 2.60 2.68 2.69 2.65 2.50 2.37 2.39 2.34 2.17
1.23 1.42 1.38 1.34 1.35 1.31 1.31 1.40 1.47 1.52 1.57 1.78 1.95 2.05 2.10 2.16 2.24 2.35 2.35 2.30 2.27 2.19 2.06 1.87 1.90 2.19 2.31 2.29 2.13 2.21 2.29 2.40 2.48 2.59 2.63 2.72 2.78 2.92 2.69 2.43 2.35 2.40 2.27
1.13 1.35 1.34 1.31 1.28 1.21 1.26 1.34 1.49 1.60 1.76 1.93 1.95 1.93 1.89 1.64 1.74 1.86 1.92 1.96 1.98 1.94 1.81 1.73 1.74 1.83 1.85 1.90 1.91 1.92 1.96 2.04 2.24 2.50 2.61 2.61 2.58 2.68 2.74 2.61 2.50 2.46 2.43
1.15 1.32 1.38 1.33 1.33 1.30 1.27 1.42 1.62 1.79 1.95 2.07 2.04 1.97 1.85 1.76 1.66 1.55 1.55 1.63 1.76 1.77 1.77 1.82 1.61 1.46 1.57 1.60 1.72 1.71 1.64 1.70 1.82 2.08 2.29 2.31 2.39 2.39 2.61 2.63 2.67 2.74 2.71
1.19 1.38 1.44 1.38 1.43 1.51 1.50 1.59 1.83 2.05 2.19 2.22 2.18 2.08 1.99 1.92 1.83 1.64 1.62 1.56 1.67 1.70 1.70 1.72 1.66 1.56 1.54 1.64 1.71 1.66 1.52 1.46 1.44 1.42 1.65 1.93 2.13 2.34 2.39 2.46 2.59 2.67 2.69
1.24 1.41 1.51 1.55 1.62 1.64 1.68 1.86 2.09 2.27 2.31 2.30 2.33 2.23 2.15 2.18 2.02 1.67 1.51 1.47 1.63 1.67 1.67 1.60 1.56 1.52 1.56 1.44 1.42 1.45 1.44 1.41 1.26 1.25 1.33 1.54 1.73 1.78 1.97 2.24 2.46 2.46 2.42
1.55 1.64 1.83 2.02 2.19 2.24 2.26 2.31 2.35 2.45 2.41 2.41 2.35 2.32 2.22 2.18 2.08 1.58 1.34 1.33 1.52 1.58 1.65 1.61 1.50 1.37 1.35 1.23 1.23 1.38 1.36 1.34 1.35 1.28 1.19 1.22 1.30 1.45 1.52 1.60 1.91 2.12 2.04
1.88 1.96 2.15 2.45 2.62 2.62 2.61 2.53 2.45 2.47 2.50 2.48 2.36 2.28 2.22 2.13 2.02 1.61 1.41 1.42 1.58 1.67 1.65 1.61 1.55 1.41 1.22 1.16 1.13 1.19 1.25 1.21 1.27 1.31 1.28 1.23 1.31 1.42 1.39 1.37 1.53 1.73 1.80
2.17 2.31 2.49 2.70 2.64 2.58 2.76 2.68 2.64 2.70 2.67 2.53 2.39 2.27 2.27 2.21 2.02 1.71 1.47 1.51 1.65 1.76 1.83 1.78 1.69 1.46 1.22 1.12 1.05 1.05 1.02 0.95 0.99 1.13 1.16 1.12 1.14 1.26 1.34 1.33 1.38 1.42 1.47
2.39 2.53 2.61 2.67 2.81 2.95 3.02 2.92 2.81 2.76 2.67 2.46 2.32 2.18 2.10 2.15 2.17 1.78 1.50 1.53 1.61 1.65 1.82 1.85 1.59 1.34 1.17 1.01 0.99 0.98 0.88 0.82 0.93 1.00 0.99 0.97 0.96 1.06 1.27 1.41 1.46 1.47 1.41
2.24 2.25 2.34 2.48 2.61 2.71 2.95 3.01 2.91 2.76 2.65 2.55 2.43 2.25 2.13 2.15 2.15 1.82 1.51 1.48 1.55 1.53 1.60 1.67 1.52 1.33 1.18 1.05 1.00 0.95 0.89 0.91 1.00 1.01 1.02 1.05 1.06 1.11 1.20 1.28 1.39 1.44 1.42
2.21 2.15 2.11 2.14 2.28 2.40 2.52 2.61 2.57 2.54 2.36 2.24 2.11 2.01 1.97 1.99 1.97 1.72 1.52 1.49 1.59 1.63 1.59 1.60 1.59 1.45 1.32 1.21 1.17 1.20 1.21 1.16 1.08 1.07 1.10 1.12 1.11 1.10 1.15 1.22 1.29 1.33 1.27
2.04 1.97 1.97 1.96 2.04 2.10 2.11 2.05 1.88 1.79 1.64 1.49 1.42 1.36 1.36 1.42 1.55 1.39 1.27 1.33 1.47 1.53 1.42 1.41 1.52 1.52 1.45 1.37 1.30 1.30 1.28 1.22 1.15 1.15 1.13 1.11 1.09 1.07 1.09 1.13 1.17 1.18 1.17
1.96 1.82 1.71 1.68 1.75 1.76 1.82 1.94 2.00 1.76 1.55 1.36 1.22 1.09 1.07 1.16 1.24 1.23 1.17 1.18 1.28 1.31 1.23 1.27 1.36 1.41 1.37 1.35 1.29 1.26 1.20 1.21 1.22 1.16 1.12 1.13 1.11 1.07 1.07 1.11 1.12 1.17 1.17
1.90 1.80 1.69 1.66 1.71 1.75 1.79 1.87 2.01 2.00 1.72 1.36 1.20 1.09 0.94 0.90 0.91 0.95 0.96 0.99 1.06 1.08 1.08 1.15 1.20 1.25 1.26 1.26 1.26 1.24 1.20 1.21 1.20 1.17 1.14 1.14 1.14 1.10 1.11 1.13 1.09 1.11 1.17
1.75 1.69 1.64 1.67 1.68 1.70 1.81 1.85 1.85 1.88 1.77 1.54 1.29 1.07 0.90 0.77 0.76 0.82 0.81 0.84 0.98 1.01 1.00 1.03 1.04 1.05 1.11 1.16 1.17 1.20 1.19 1.16 1.15 1.19 1.16 1.14 1.16 1.18 1.18 1.18 1.18 1.20 1.20
1.65 1.55 1.45 1.48 1.49 1.45 1.49 1.56 1.57 1.62 1.58 1.47 1.32 1.05 0.83 0.73 0.77 0.84 0.83 0.91 1.00 1.00 0.95 0.98 0.93 0.92 0.98 1.06 1.12 1.17 1.16 1.18 1.21 1.20 1.17 1.16 1.15 1.15 1.15 1.16 1.19 1.22 1.24
1.61 1.39 1.15 1.06 1.14 1.25 1.35 1.41 1.41 1.40 1.41 1.37 1.19 0.92 0.71 0.62 0.73 0.87 0.94 0.97 0.96 0.96 0.91 0.87 0.83 0.84 0.89 0.95 1.00 1.05 1.11 1.19 1.18 1.15 1.18 1.14 1.09 1.09 1.08 1.11 1.11 1.14 1.20
1.50 1.36 1.17 1.04 1.07 1.13 1.21 1.33 1.34 1.28 1.24 1.19 1.07 0.87 0.71 0.60 0.69 0.80 0.86 0.86 0.84 0.86 0.83 0.79 0.76 0.80 0.83 0.89 0.96 1.01 1.05 1.07 1.09 1.11 1.12 1.12 1.11 1.10 1.10 1.17 1.19 1.19 1.22
1.40 1.34 1.23 1.14 1.17 1.15 1.18 1.25 1.21 1.15 1.11 1.06 0.98 0.87 0.76 0.74 0.78 0.83 0.85 0.85 0.85 0.81 0.78 0.76 0.73 0.73 0.79 0.84 0.87 0.93 0.99 0.99 1.01 1.04 1.09 1.12 1.12 1.14 1.20 1.24 1.22 1.20 1.19
1.24 1.21 1.10 1.05 1.09 1.13 1.10 1.10 1.05 1.00 0.95 0.91 0.86 0.83 0.79 0.79 0.80 0.80 0.82 0.82 0.79 0.73 0.68 0.69 0.71 0.74 0.78 0.81 0.80 0.81 0.83 0.87 0.88 0.93 0.99 1.05 1.09 1.18 1.27 1.31 1.27 1.23 1.28
1.16 1.18 1.10 1.04 1.04 1.05 1.04 1.02 0.97 0.93 0.89 0.82 0.79 0.76 0.75 0.75 0.76 0.79 0.79 0.74 0.69 0.67 0.65 0.66 0.72 0.72 0.68 0.69 0.70 0.70 0.78 0.78 0.77 0.85 0.96 1.10 1.15 1.24 1.36 1.39 1.37 1.35 1.42
1.04 1.06 1.02 0.97 0.93 0.94 0.94 0.98 0.96 0.88 0.82 0.76 0.75 0.75 0.69 0.64 0.63 0.65 0.64 0.63 0.62 0.63 0.65 0.66 0.69 0.70 0.68 0.66 0.67 0.72 0.72 0.70 0.73 0.83 0.86 0.94 1.08 1.18 1.26 1.31 1.27 1.33 1.41

GEFSGL_prec_meanprecacc_252.txt.gz
Total_Precipitation_Accumulation
1.66 1.89 1.91 1.80 1.81 1.87 1.78 1.74 1.86 1.89 1.87 1.92 1.93 1.90 1.89 2.04 2.25 2.46 2.43 2.59 2.72 2.76 2.74 2.66 2.55 2.60 2.74 2.68 2.82 2.98 3.18 3.40 3.15 2.82 2.68 2.62 2.60 2.40 2.24 1.93 1.69 1.56 1.44
1.92 2.20 2.24 2.01 1.81 1.70 1.57 1.56 1.73 1.90 1.92 1.89 1.87 1.86 1.82 1.92 2.18 2.36 2.47 2.72 2.86 2.77 2.69 2.63 2.51 2.63 2.74 2.72 2.79 2.79 2.85 3.13 3.05 2.85 2.79 2.82 2.69 2.46 2.33 2.13 1.78 1.58 1.59
1.74 2.05 2.06 1.82 1.60 1.55 1.54 1.58 1.71 1.84 1.85 1.80 1.83 1.91 2.03 2.14 2.32 2.45 2.56 2.74 2.71 2.61 2.63 2.55 2.44 2.51 2.47 2.54 2.57 2.57 2.57 2.66 2.83 2.75 2.66 2.74 2.64 2.43 2.34 2.17 2.04 2.13 1.94
1.33 1.61 1.64 1.49 1.42 1.43 1.48 1.51 1.51 1.55 1.60 1.66 1.87 2.11 2.26 2.38 2.49 2.52 2.53 2.50 2.50 2.42 2.32 2.25 2.27 2.38 2.43 2.42 2.34 2.34 2.41 2.55 2.64 2.66 2.63 2.71 2.72 2.67 2.52 2.39 2.41 2.36 2.19
1.25 1.45 1.43 1.38 1.38 1.33 1.33 1.42 1.48 1.54 1.58 1.80 1.97 2.08 2.12 2.18 2.25 2.37 2.37 2.31 2.30 2.22 2.12 1.94 1.97 2.26 2.37 2.32 2.14 2.25 2.33 2.42 2.51 2.63 2.67 2.75 2.82 2.95 2.72 2.45 2.38 2.44 2.31
1.18 1.40 1.38 1.35 1.31 1.24 1.28 1.36 1.51 1.62 1.78 1.96 1.97 1.94 1.90 1.65 1.74 1.87 1.92 1.98 2.02 2.00 1.89 1.81 1.81 1.89 1.91 1.93 1.92 1.94 1.99 2.07 2.27 2.55 2.65 2.66 2.62 2.71 2.77 2.64 2.54 2.51 2.48
1.23 1.41 1.43 1.37 1.36 1.34 1.30 1.44 1.64 1.82 1.98 2.10 2.06 1.99 1.86 1.78 1.67 1.56 1.56 1.64 1.78 1.81 1.83 1.88 1.64 1.47 1.59 1.62 1.74 1.72 1.65 1.72 1.86 2.13 2.33 2.34 2.42 2.43 2.66 2.67 2.72 2.79 2.77
1.26 1.48 1.53 1.46 1.48 1.55 1.54 1.62 1.86 2.08 2.22 2.25 2.22 2.11 2.01 1.93 1.84 1.65 1.63 1.57 1.67 1.71 1.71 1.73 1.67 1.56 1.54 1.65 1.72 1.67 1.52 1.47 1.45 1.44 1.68 1.95 2.15 2.37 2.42 2.49 2.63 2.72 2.73
1.27 1.45 1.57 1.62 1.69 1.70 1.73 1.91 2.13 2.30 2.33 2.32 2.36 2.26 2.17 2.19 2.04 1.69 1.53 1.48 1.63 1.67 1.67 1.61 1.56 1.52 1.56 1.44 1.42 1.45 1.44 1.41 1.26 1.25 1.33 1.54 1.73 1.79 1.99 2.25 2.48 2.49 2.46
1.58 1.68 1.88 2.07 2.24 2.30 2.32 2.37 2.41 2.49 2.45 2.45 2.38 2.34 2.24 2.21 2.13 1.62 1.37 1.34 1.53 1.59 1.65 1.61 1.51 1.38 1.35 1.23 1.23 1.38 1.36 1.35 1.35 1.28 1.19 1.22 1.30 1.45 1.53 1.61 1.93 2.15 2.07
1.92 2.00 2.21 2.50 2.68 2.67 2.66 2.58 2.50 2.53 2.55 2.53 2.40 2.31 2.25 2.16 2.06 1.63 1.43 1.43 1.59 1.68 1.66 1.62 1.56 1.42 1.22 1.17 1.13 1.20 1.26 1.23 1.28 1.32 1.28 1.24 1.32 1.43 1.40 1.38 1.54 1.75 1.82
2.21 2.38 2.58 2.78 2.71 2.65 2.82 2.73 2.70 2.76 2.72 2.58 2.44 2.30 2.30 2.24 2.04 1.72 1.49 1.53 1.67 1.78 1.84 1.80 1.70 1.49 1.24 1.13 1.05 1.05 1.03 0.96 0.99 1.14 1.17 1.13 1.16 1.27 1.35 1.34 1.39 1.44 1.49
2.43 2.58 2.68 2.74 2.88 3.02 3.08 2.98 2.87 2.83 2.74 2.53 2.39 2.23 2.13 2.19 2.20 1.81 1.52 1.56 1.63 1.66 1.84 1.88 1.62 1.37 1.20 1.03 1.00 1.00 0.90 0.83 0.94 1.02 1.01 0.99 0.98 1.09 1.29 1.43 1.48 1.49 1.43
2.29 2.30 2.39 2.54 2.66 2.76 3.01 3.05 2.95 2.80 2.69 2.59 2.48 2.30 2.18 2.19 2.18 1.85 1.53 1.50 1.57 1.55 1.62 1.70 1.56 1.37 1.21 1.07 1.01 0.97 0.91 0.93 1.02 1.03 1.04 1.07 1.08 1.14 1.22 1.31 1.41 1.47 1.44
2.25 2.19 2.15 2.18 2.32 2.44 2.56 2.65 2.60 2.57 2.39 2.27 2.14 2.05 2.00 2.02 2.01 1.76 1.56 1.52 1.62 1.67 1.64 1.65 1.64 1.49 1.35 1.23 1.20 1.22 1.24 1.19 1.11 1.10 1.13 1.16 1.14 1.14 1.19 1.24 1.31 1.36 1.30
2.05 1.99 1.99 1.99 2.07 2.13 2.14 2.07 1.90 1.81 1.66 1.51 1.44 1.38 1.39 1.45 1.58 1.43 1.30 1.37 1.52 1.58 1.48 1.47 1.57 1.57 1.48 1.39 1.33 1.32 1.31 1.25 1.19 1.18 1.17 1.16 1.13 1.10 1.13 1.17 1.20 1.21 1.19
1.99 1.85 1.75 1.71 1.77 1.78 1.83 1.96 2.02 1.78 1.57 1.38 1.24 1.11 1.09 1.18 1.27 1.27 1.22 1.22 1.32 1.35 1.28 1.32 1.40 1.44 1.40 1.37 1.32 1.29 1.23 1.25 1.27 1.22 1.16 1.17 1.15 1.11 1.12 1.15 1.16 1.20 1.19
1.93 1.83 1.72 1.69 1.73 1.77 1.80 1.89 2.02 2.01 1.73 1.37 1.22 1.11 0.96 0.92 0.94 0.98 0.99 1.03 1.09 1.11 1.10 1.17 1.22 1.27 1.29 1.30 1.29 1.29 1.24 1.25 1.24 1.22 1.17 1.17 1.18 1.14 1.14 1.16 1.12 1.14 1.20
1.79 1.72 1.68 1.70 1.71 1.73 1.83 1.87 1.87 1.89 1.78 1.55 1.30 1.08 0.92 0.79 0.79 0.84 0.84 0.87 1.01 1.04 1.01 1.04 1.06 1.09 1.14 1.20 1.21 1.24 1.22 1.19 1.18 1.23 1.18 1.16 1.19 1.21 1.21 1.21 1.21 1.23 1.24
1.68 1.58 1.49 1.50 1.50 1.47 1.51 1.59 1.59 1.64 1.60 1.48 1.33 1.06 0.85 0.76 0.80 0.87 0.86 0.94 1.03 1.02 0.98 1.01 0.96 0.96 1.01 1.09 1.15 1.20 1.19 1.21 1.24 1.22 1.20 1.19 1.18 1.19 1.18 1.20 1.23 1.27 1.28
1.64 1.42 1.18 1.08 1.17 1.27 1.37 1.44 1.45 1.45 1.46 1.42 1.22 0.94 0.74 0.65 0.77 0.90 0.98 1.00 0.98 0.98 0.94 0.90 0.86 0.87 0.92 0.99 1.05 1.10 1.16 1.24 1.22 1.20 1.22 1.20 1.14 1.14 1.13 1.16 1.16 1.19 1.25
1.52 1.38 1.19 1.06 1.10 1.15 1.24 1.36 1.39 1.36 1.36 1.35 1.17 0.91 0.77 0.65 0.73 0.84 0.90 0.89 0.88 0.89 0.86 0.82 0.78 0.82 0.86 0.92 1.01 1.06 1.10 1.12 1.13 1.15 1.16 1.16 1.15 1.14 1.14 1.20 1.22 1.23 1.26
1.42 1.36 1.25 1.16 1.19 1.19 1.21 1.28 1.27 1.23 1.22 1.19 1.10 0.96 0.84 0.81 0.83 0.88 0.89 0.89 0.88 0.84 0.81 0.79 0.76 0.76 0.83 0.88 0.91 0.96 1.02 1.02 1.03 1.06 1.12 1.15 1.16 1.19 1.25 1.29 1.26 1.23 1.24
1.28 1.24 1.14 1.09 1.12 1.16 1.14 1.15 1.11 1.08 1.03 0.99 0.93 0.89 0.84 0.84 0.85 0.84 0.85 0.86 0.83 0.76 0.72 0.72 0.74 0.76 0.81 0.84 0.83 0.82 0.85 0.89 0.91 0.96 1.02 1.08 1.13 1.22 1.32 1.37 1.33 1.29 1.33
1.21 1.23 1.16 1.09 1.09 1.09 1.09 1.08 1.04 1.00 0.96 0.90 0.85 0.81 0.78 0.79 0.80 0.83 0.83 0.78 0.72 0.70 0.67 0.68 0.74 0.75 0.71 0.72 0.72 0.73 0.82 0.82 0.80 0.87 0.98 1.12 1.18 1.27 1.39 1.44 1.42 1.42 1.49
1.10 1.12 1.08 1.03 0.99 1.00 1.00 1.02 1.00 0.93 0.87 0.82 0.81 0.80 0.74 0.69 0.68 0.69 0.68 0.67 0.66 0.66 0.67 0.68 0.71 0.73 0.72 0.70 0.72 0.77 0.76 0.72 0.75 0.84 0.87 0.96 1.09 1.20 1.29 1.34 1.31 1.39 1.47